Location: Montreal
(45.5000°N, 73.5833°W)
Time: 22:19:27
(UTC-04:00)

Vanguard 3 - Visible Passes

Search period start: 23 October 2017 00:00
Search period end: 02 November 2017 00:00
Orbit: 510 x 3263 km, 33.3° (Epoch: 23 October)

Date Brightness Start Highest point End Pass type
(mag) Time Alt. Az. Time Alt. Az. Time Alt. Az.
23 Oct 10.6 02:27:52 22° SE 02:27:52 22° SE 02:34:09 10° ESE visible
23 Oct 9.8 04:32:27 28° SSW 04:38:21 38° S 04:47:03 10° ESE visible
23 Oct 9.3 06:39:53 10° WSW 06:51:00 39° S 06:57:36 10° ESE visible
24 Oct 10.1 03:22:53 33° SSE 03:23:31 33° SSE 03:33:30 10° ESE visible
24 Oct 9.5 05:27:28 19° SW 05:36:52 42° S 05:44:57 10° ESE visible
25 Oct 10.6 02:13:16 23° SE 02:13:16 23° SE 02:19:10 10° ESE visible
25 Oct 9.8 04:17:51 35° SSW 04:22:15 42° S 04:31:52 10° ESE visible
25 Oct 9.4 06:22:53 10° WSW 06:35:09 41° SSW 06:42:25 10° SE visible
26 Oct 10.1 03:08:11 38° SSE 03:08:11 38° SSE 03:18:15 10° E visible
26 Oct 9.5 05:12:46 26° SW 05:20:52 46° S 05:29:43 10° ESE visible
27 Oct 10.6 01:58:29 24° ESE 01:58:29 24° ESE 02:03:55 10° E visible
27 Oct 9.7 04:03:04 42° SSW 04:06:02 46° S 04:16:33 10° ESE visible
27 Oct 9.5 06:07:39 14° WSW 06:19:12 42° SSW 06:27:10 10° SE visible
28 Oct 10.1 02:53:20 40° SE 02:53:20 40° SE 03:02:51 10° E visible
28 Oct 9.6 04:57:55 32° SW 05:04:44 48° S 05:14:24 10° ESE visible
29 Oct 10.7 01:43:36 23° ESE 01:43:36 23° ESE 01:48:27 10° E visible
29 Oct 9.8 03:48:10 48° S 03:49:41 49° S 04:01:08 10° ESE visible
29 Oct 9.6 05:52:45 19° WSW 06:03:08 43° SSW 06:11:49 10° SE visible
30 Oct 10.2 02:38:25 40° SE 02:38:25 40° SE 02:47:19 10° E visible
30 Oct 9.6 04:42:59 38° SW 04:48:29 50° S 04:59:00 10° ESE visible
30 Oct 9.7 06:49:01 10° W 07:01:01 33° SSW 07:08:36 10° SSE visible
31 Oct 10.8 01:28:39 22° ESE 01:28:39 22° ESE 01:32:47 10° E visible
31 Oct 9.8 03:33:12 52° S 03:33:12 52° S 03:45:36 10° ESE visible
31 Oct 9.7 05:37:47 24° WSW 05:46:56 44° SSW 05:56:22 10° SE visible
01 Nov 10.3 02:23:26 38° SE 02:23:26 38° SE 02:31:38 10° E visible
01 Nov 9.7 04:28:01 44° SW 04:32:06 51° S 04:43:28 10° ESE visible
01 Nov 9.9 06:32:35 11° W 06:44:48 32° SSW 06:53:02 10° SSE visible
